Weather History for Gulkana, AK

Change the Weather History Date:

Saturday, October 5, 2013

  Actual Average Record
Temperature  
Mean Temperature 37 °F -  
Max Temperature 46 °F 43 °F 56 °F (1952)
Min Temperature 28 °F 26 °F 1 °F (1996)
Degree Days  
Heating Degree Days 28    
Moisture  
Dew Point 33 °F    
Average Humidity 89    
Maximum Humidity 97    
Minimum Humidity 65    
Precipitation  
Precipitation 0.01 in - - ()
Sea Level Pressure  
Sea Level Pressure 29.79 in    
Wind  
Wind Speed 3 mph (NNW)    
Max Wind Speed 8 mph    
Max Gust Speed -    
Visibility 10 miles    
Events Rain    
Averages and records for this station are not official NWS values.
T = Trace of Precipitation, MM = Missing Value Source: NWS Daily Summary

Daily Weather History Graph

Daily Weather History Graph

Search for Another Location

Airport:

Trip Planner

Search our weather history database for the weather conditions in past years. The results will help you decide how hot, cold, wet, or windy it might be!

Date:

Astronomy

Oct. 05, 2013 Rise Set
Actual Time 8:00 AM AKDT 6:58 PM AKDT
Civil Twilight 7:16 AM AKDT 7:42 PM AKDT
Nautical Twilight 6:24 AM AKDT 8:34 PM AKDT
Astronomical Twilight 5:29 AM AKDT 9:28 PM AKDT
Moon 9:16 AM AKDT (10/5) 6:50 PM AKDT (10/5)
Length of Visible Light 12h 26m
Length of Day
10h 57m
New Moon, 1% of the Moon is Illuminated
Oct 5
New Moon
Oct 11
First Quarter
Oct 18
Full
Oct 26
Last Quarter
Nov 3
New

Hourly Weather History & Observations

Time (AKDT) Temp. Windchill Dew Point Humidity Pressure Visibility Wind Dir Wind Speed Gust Speed Precip Events Conditions
12:15 AM 39.0 °F 36.8 °F 35.1 °F 86% 29.71 in 10.0 mi NNW 3.5 mph - 0.00 in Rain Light Rain
12:41 AM 37.9 °F 34.4 °F 36.0 °F 93% 29.72 in 10.0 mi North 4.6 mph - 0.02 in Rain Light Rain
12:53 AM 37.9 °F 34.4 °F 36.0 °F 93% 29.77 in 10.0 mi WNW 4.6 mph - 0.02 in Rain Light Rain
1:53 AM 36.0 °F 33.3 °F 35.1 °F 97% 29.78 in 10.0 mi NW 3.5 mph - 0.00 in   Overcast
2:53 AM 33.1 °F 30.0 °F 32.0 °F 96% 29.79 in 10.0 mi West 3.5 mph - N/A   Overcast
3:53 AM 32.0 °F - 30.9 °F 96% 29.80 in 10.0 mi Calm Calm - N/A   Overcast
4:53 AM 32.0 °F 28.7 °F 30.9 °F 96% 29.81 in 10.0 mi NW 3.5 mph - N/A   Overcast
5:53 AM 30.9 °F - 28.9 °F 92% 29.81 in 10.0 mi Calm Calm - N/A   Overcast
6:53 AM 30.9 °F 27.5 °F 28.9 °F 92% 29.83 in 10.0 mi WNW 3.5 mph - N/A   Overcast
7:53 AM 32.0 °F 28.7 °F 30.9 °F 96% 29.83 in 10.0 mi NW 3.5 mph - 0.00 in   Overcast
8:00 AM 32.0 °F - 30.9 °F 96% 29.77 in 10.0 mi Calm Calm - 0.00 in   Overcast
8:53 AM 33.1 °F - 32.0 °F 96% 29.83 in 10.0 mi Calm Calm - 0.01 in Rain Light Rain
9:53 AM 34.0 °F - 33.1 °F 96% 29.83 in 10.0 mi Calm Calm - 0.00 in   Overcast
10:44 AM 35.1 °F 32.2 °F 34.0 °F 96% 29.77 in 10.0 mi NW 3.5 mph - N/A   Overcast
10:53 AM 36.0 °F - 34.0 °F 93% 29.83 in 10.0 mi Calm Calm - N/A   Overcast
11:21 AM 39.9 °F - 36.0 °F 86% 29.77 in 10.0 mi Calm Calm - N/A   Overcast
11:53 AM 42.1 °F - 37.0 °F 82% 29.82 in 10.0 mi Calm Calm - N/A   Mostly Cloudy
12:10 PM 41.0 °F 38.0 °F 36.0 °F 82% 29.77 in 10.0 mi Variable 4.6 mph - N/A   Mostly Cloudy
12:19 PM 41.0 °F 38.0 °F 36.0 °F 82% 29.77 in 10.0 mi SSW 4.6 mph - N/A   Mostly Cloudy
12:53 PM 41.0 °F 39.0 °F 36.0 °F 82% 29.83 in 10.0 mi Variable 3.5 mph - N/A   Overcast
1:53 PM 41.0 °F 36.4 °F 37.0 °F 86% 29.82 in 10.0 mi NNE 6.9 mph - N/A   Overcast
2:53 PM 42.1 °F 37.1 °F 37.0 °F 82% 29.81 in 10.0 mi NE 8.1 mph - N/A   Overcast
3:53 PM 45.0 °F 41.2 °F 37.0 °F 74% 29.80 in 10.0 mi NNE 6.9 mph - N/A   Mostly Cloudy
4:53 PM 43.0 °F 38.8 °F 36.0 °F 76% 29.78 in 10.0 mi NNE 6.9 mph - N/A   Scattered Clouds
5:53 PM 41.0 °F 35.8 °F 36.0 °F 82% 29.78 in 10.0 mi North 8.1 mph - N/A   Mostly Cloudy
6:53 PM 39.0 °F 35.7 °F 35.1 °F 86% 29.78 in 10.0 mi NNW 4.6 mph - N/A   Overcast
7:53 PM 36.0 °F - 34.0 °F 93% 29.78 in 10.0 mi Calm Calm - N/A   Partly Cloudy
8:53 PM 30.9 °F - 28.9 °F 92% 29.78 in 10.0 mi Calm Calm - N/A   Clear
9:53 PM 28.9 °F - 27.0 °F 92% 29.79 in 10.0 mi Calm Calm - N/A   Partly Cloudy
10:53 PM 28.0 °F 24.2 °F 26.1 °F 92% 29.78 in 10.0 mi South 3.5 mph - N/A   Clear
11:53 PM 37.0 °F 31.0 °F 34.0 °F 89% 29.75 in 10.0 mi SSE 8.1 mph - N/A   Clear